Tiempo atmosférico en la estación meteorológica de San Andrés y Sauces, Santa Cruz de Tenerife (362 m.)



Fecha
DESCASC
Temp. máxima en grados centígrados (hora)
DESCASC
Temp. mínima en grados centígrados (hora)
DESCASC
Temp. media en grados centígrados
DESCASC
Racha de viento máxima en m/sg (hora)
DESCASC
Velocidad máxima media en intervalos de 10 minutos(hora)
DESCASC
Precipitaciones diarias en mm
DESCASC
Precipitaciones de 00:00 a 06:00 en mm
DESCASC
Precipitaciones de 06:00 a 12:00 en mm
DESCASC
Precipitaciones de 12:00 a 18:00 en mm
DESCASC
Precipitaciones de 18:00 a 24:00 en mm
DESCASC
17-01-2021 17.4 (13:30) 13.8 (01:10) 15.6 8.06 (04:40) 4.72 (04:20) 0 0 0 0 0
16-01-2021 17.2 (12:40) 13.2 (00:20) 15.2 10.28 (11:00) 5.28 (11:10) 0 0 0 0 0
15-01-2021 15.1 (14:50) 12.7 (06:00) 13.9 9.72 (02:50) 4.72 (16:20) 2.8 2.8 0 0 0
14-01-2021 17.9 (13:00) 12 (05:20) 14.9 8.33 (23:59) 5 (11:40) 0.2 0 0 0.2 0
13-01-2021 14.6 (14:00) 11.7 (00:00) 13.2 10 (23:40) 4.44 (23:40) 0 0 0 0 0
12-01-2021 14.4 (14:30) 10.8 (00:00) 12.6 8.89 (14:00) 5.83 (11:00) 5.2 3.8 1.4 0 0
11-01-2021 15.5 (11:30) 11 (00:00) 13.3 11.39 (01:10) 6.67 (19:50) 4.2 1.8 0 0 2.4
10-01-2021 15.2 (15:00) 10.6 (09:00) 12.9 13.89 (08:50) 9.17 (08:50) 7.4 1.2 3.8 2 0.4
09-01-2021 13.8 (13:50) 10.1 (00:00) 12 17.22 (06:20) 8.06 (00:10) 9.6 3.4 3.8 1.2 1.2
08-01-2021 14.7 (00:30) 10.5 (00:00) 12.6 16.39 (03:50) 7.78 (06:30) 45 21.2 9 10.8 4
07-01-2021 19.7 (15:30) 14.1 (00:00) 16.9 14.17 (23:30) 7.78 (23:30) 40.2 10.2 11.6 7.6 10.8
06-01-2021 22.5 (12:50) 15.6 (00:00) 19.1 8.89 (02:50) 5 (07:30) 1 0.4 0.6 0 0
05-01-2021 21.4 (15:50) 15.1 (00:00) 18.3 5.83 (02:20) 3.89 (04:30) 0 0 0 0 0
04-01-2021 19.6 (15:20) 15.1 (00:00) 17.4 15.28 (11:50) 8.33 (13:50) 0 0 0 0 0
03-01-2021 16.4 (15:50) 12.8 (00:00) 14.6 10.83 (22:50) 4.72 (03:40) 0.6 0 0.6 0 0
02-01-2021 15.1 (12:30) 11.5 (00:00) 13.3 7.78 (17:30) 5.28 (02:20) 0.4 0.2 0.2 0 0
01-01-2021 15.9 (11:30) 12.4 (00:00) 14.1 9.17 (23:00) 5 (05:30) 1.4 0.2 0 1.2 0
31-12-2020 16.8 (12:50) 13.1 (00:00) 14.9 6.39 (04:40) 4.72 (07:10) 14.8 13.2 0.2 0 1.4
30-12-2020 17.6 (12:30) 13.8 (00:00) 15.7 5.28 (11:30) 3.89 (22:40) 0.8 0 0 0 0.8
29-12-2020 16.9 (12:10) 14.1 (00:00) 15.5 7.5 (04:10) 4.17 (08:50) 3.8 3.8 0 0 0
28-12-2020 19 (11:00) 14 (00:00) 16.5 5.83 (01:20) 4.17 (01:20) 12.4 12 0 0 0.4
27-12-2020 19.4 (10:20) 14.3 (00:00) 16.8 5.83 (08:00) 4.17 (20:30) 0 0 0 0 0
26-12-2020 20.7 (12:30) 14.5 (00:00) 17.6 12.22 (03:40) 6.39 (03:40) 8.6 0 0.2 8.4 0
25-12-2020 20.9 (13:40) 15.3 (00:00) 18.1 9.17 (04:00) 5.28 (00:10) 0 0 0 0 0
24-12-2020 19.7 (12:50) 15.5 (00:00) 17.6 15.83 (11:50) 8.06 (09:30) 0 0 0 0 0
23-12-2020 21.3 (13:50) 13.4 (02:40) 17.3 12.5 (12:50) 6.94 (13:30) 0 0 0 0 0
21-12-2020 17.3 (14:00) 14.4 (00:00) 15.8 7.5 (05:00) 5.56 (05:00) 13.2 10 3.2 0 0

Gráficas

Temp. máximas Temp. mínimas Temp. medias Precipitaciones Rachas de viento máximas Velocidades máximas media en intervalos de 10 minutos

Datos horarios

Fecha y hora oficial Temperatura (ºC) Velocidad del viento (km/h) Dirección del viento Racha (km/h) Dirección de racha Precipitación (mm) Presión (hPa) Tendencia (hPa) Humedad (%)
2021-01-19 23:00:00 -- -- -- -- -- -- -- -- --
2021-01-19 22:00:00 12.9 13 Sudoeste 19 Sudoeste 0 -- -- 80
2021-01-19 21:00:00 12.8 10 Sudoeste 16 Oeste 0 -- -- 83
2021-01-19 20:00:00 12.8 11 Sudoeste 16 Sudoeste 0 -- -- 84
2021-01-19 19:00:00 13.4 10 Oeste 17 Sudoeste 0 -- -- 82
2021-01-19 18:00:00 15 8 Sudoeste 14 Sur 0 -- -- 76
2021-01-19 17:00:00 15.3 6 Sur 9 Sur 0 -- -- 77
2021-01-19 16:00:00 15.5 2 Norte 6 Norte 0 -- -- 77
2021-01-19 15:00:00 15.6 5 Nordeste 10 Norte 0 -- -- 77
2021-01-19 14:00:00 15.8 6 Nordeste 14 Este 0 -- -- 75
2021-01-19 13:00:00 15.8 3 Norte 17 Norte 0 -- -- 76
2021-01-19 12:00:00 15.4 4 Norte 17 Norte 0 -- -- 77
2021-01-19 11:00:00 16.1 6 Este 10 Este 0 -- -- 75
2021-01-19 10:00:00 15.2 3 Sudeste 18 Sudoeste 0 -- -- 75
2021-01-19 09:00:00 13.5 14 Sudoeste 21 Sudoeste 0 -- -- 74
2021-01-19 08:00:00 12.3 14 Sudoeste 19 Sudoeste 0 -- -- 82
2021-01-19 07:00:00 12.6 16 Sudoeste 25 Oeste 0 -- -- 77
2021-01-19 06:00:00 12.9 13 Sudoeste 18 Sudoeste 0 -- -- 77
2021-01-19 05:00:00 12.3 11 Sudoeste 18 Sudoeste 0 -- -- 83
2021-01-19 04:00:00 11.9 15 Sudoeste 18 Sudoeste 0 -- -- 83
2021-01-19 03:00:00 12 13 Sudoeste 21 Sudoeste 0 -- -- 81
2021-01-19 02:00:00 13 15 Sudoeste 23 Sudoeste 0 -- -- 77
2021-01-19 01:00:00 13.3 13 Sudoeste 20 Sudoeste 0 -- -- 78
2021-01-19 00:00:00 13 13 Sudoeste 18 Sudoeste 0 -- -- 79
2021-01-18 23:00:00 13.4 12 Sudoeste 17 Sudoeste 0 -- -- 78
2021-01-18 22:00:00 13.1 13 Sudoeste 15 Sudoeste 0 -- -- 78
2021-01-18 21:00:00 13.6 12 Sudoeste 15 Sudoeste 0 -- -- 79
2021-01-18 20:00:00 14.1 8 Sudoeste 12 Sudoeste 0 -- -- 82
2021-01-18 19:00:00 14.4 5 Sudoeste 10 Este 0 -- -- 81
2021-01-18 18:00:00 14.8 6 Este 13 Este 0 -- -- 82
2021-01-18 17:00:00 15.1 6 Este 12 Este 0 -- -- 81
2021-01-18 16:00:00 15.5 9 Este 14 Este 0 -- -- 80
2021-01-18 15:00:00 15.5 10 Este 17 Este 0 -- -- 77
2021-01-18 14:00:00 15.4 9 Sudeste 17 Sudeste 0 -- -- 76
2021-01-18 13:00:00 15.2 8 Este 17 Este 0 -- -- 77
2021-01-18 12:00:00 15.3 10 Sudeste 16 Este 0 -- -- 76
2021-01-18 11:00:00 15 9 Sudeste 21 Sudeste 0 -- -- 79
2021-01-18 10:00:00 14.4 8 Sudoeste 19 Sudoeste 0 -- -- 76
2021-01-18 09:00:00 13.8 10 Sudoeste 19 Sudoeste 0 -- -- 76
2021-01-18 08:00:00 13.3 18 Sudoeste 27 Sudoeste 0 -- -- 75
2021-01-18 07:00:00 13 17 Sudoeste 27 Sudoeste 0 -- -- 72
2021-01-18 06:00:00 12.8 17 Sudoeste 23 Sudoeste 0 -- -- 74
2021-01-18 05:00:00 12.9 16 Sudoeste 22 Sudoeste 0 -- -- 73
2021-01-18 04:00:00 13.5 13 Sudoeste 20 Sudoeste 0 -- -- 74
2021-01-18 03:00:00 13.7 9 Sudoeste 20 Sudoeste 0 -- -- 74
2021-01-18 02:00:00 13.9 8 Sudoeste 21 Sudoeste 0 -- -- 74
2021-01-18 01:00:00 13.9 11 Sudoeste 24 Sudoeste 0 -- -- 74
2021-01-18 00:00:00 14.3 12 Sudoeste 20 Sudoeste 0 -- -- 72
2021-01-17 23:00:00 14.3 7 Sur 19 Sudoeste 0 -- -- 74
2021-01-17 22:00:00 14.5 13 Sudoeste 22 Sudoeste 0 -- -- 75
2021-01-17 21:00:00 14.7 7 Sur 24 Sudoeste 0 -- -- 79
2021-01-17 20:00:00 14.7 12 Sudoeste 26 Sudoeste 0 -- -- 78
2021-01-17 19:00:00 14.6 5 Sur 11 Sudeste 0 -- -- 80
2021-01-17 18:00:00 15.2 6 Sur 14 Este 0 -- -- 77
2021-01-17 17:00:00 15.5 8 Este 18 Este 0 -- -- 76
2021-01-17 16:00:00 15.7 9 Este 18 Este 0 -- -- 73
2021-01-17 15:00:00 16.4 9 Sudeste 25 Este 0 -- -- 68
2021-01-17 14:00:00 16.9 13 Este 24 Nordeste 0 -- -- 67
2021-01-17 13:00:00 16.7 13 Sur 26 Este 0 -- -- 63
2021-01-17 12:00:00 15.9 13 Este 23 Este 0 -- -- 69
2021-01-17 11:00:00 15.1 13 Este 24 Sudeste 0 -- -- 69
2021-01-17 10:00:00 14.6 12 Sur 27 Sudoeste 0 -- -- 72
2021-01-17 09:00:00 14.2 12 Sudoeste 28 Sudoeste 0 -- -- 71
2021-01-17 08:00:00 14.1 11 Sur 22 Sudoeste 0 -- -- 72
2021-01-17 07:00:00 14.1 9 Sur 21 Sur 0 -- -- 73
2021-01-17 06:00:00 14.3 7 Sur 26 Sudoeste 0 -- -- 74
2021-01-17 05:00:00 14.2 16 Sudoeste 29 Sudoeste 0 -- -- 69
2021-01-17 04:00:00 14.1 9 Sur 24 Sudoeste 0 -- -- 70
2021-01-17 03:00:00 14.2 12 Sudoeste 21 Sudoeste 0 -- -- 67
2021-01-17 02:00:00 14 8 Sur 18 Sur 0 -- -- 70
2021-01-17 01:00:00 13.9 8 Sur 26 Sudoeste 0 -- -- 74
2021-01-17 00:00:00 14.4 11 Sur 26 Sudoeste 0 -- -- 73
2021-01-16 23:00:00 14 11 Sudoeste 20 Sudoeste 0 -- -- 72
2021-01-16 22:00:00 13.9 13 Sudoeste 23 Sudoeste 0 -- -- 70
2021-01-16 21:00:00 13.4 15 Sudoeste 22 Sudoeste 0 -- -- 72
2021-01-16 20:00:00 13.5 10 Sudoeste 17 Sur 0 -- -- 77
2021-01-16 19:00:00 14.1 4 Sur 30 Sudoeste 0 -- -- 74
2021-01-16 18:00:00 14.3 10 Sur 21 Sudoeste 0 -- -- 81
2021-01-16 17:00:00 14.9 15 Este 28 Este 0 -- -- 83
2021-01-16 16:00:00 15.7 12 Este 27 Sudeste 0 -- -- 77
2021-01-16 15:00:00 15.5 13 Este 26 Este 0 -- -- 73
2021-01-16 14:00:00 15.9 14 Este 30 Este 0 -- -- 78
2021-01-16 13:00:00 16.7 13 Sudeste 33 Este 0 -- -- 68
2021-01-16 12:00:00 16.2 12 Sudeste 32 Sudoeste 0 -- -- 74
2021-01-16 11:00:00 15.1 19 Sudoeste 37 Sudoeste 0 -- -- 61
2021-01-16 10:00:00 14.2 11 Sudoeste 21 Sudoeste 0 -- -- 66
2021-01-16 09:00:00 13.6 10 Sudoeste 26 Sudoeste 0 -- -- 74
2021-01-16 08:00:00 13.5 16 Sudoeste 25 Sudoeste 0 -- -- 73
2021-01-16 07:00:00 13.3 7 Sudeste 26 Sudoeste 0 -- -- 73
2021-01-16 06:00:00 13.3 10 Sur 21 Oeste 0 -- -- 76
2021-01-16 05:00:00 13.3 15 Sudoeste 22 Sudoeste 0 -- -- 71
2021-01-16 04:00:00 13.2 11 Este 23 Este 0 -- -- 71
2021-01-16 03:00:00 13.6 9 Sudoeste 27 Sudoeste 0 -- -- 70
2021-01-16 02:00:00 13.5 11 Sur 25 Este 0 -- -- 68
2021-01-16 01:00:00 13.6 10 Sur 26 Sudoeste 0 -- -- 71
2021-01-16 00:00:00 13.3 10 Sudoeste 27 Este 0 -- -- 69
2021-01-15 23:00:00 13.3 6 Sur 13 Sur 0 -- -- 71
2021-01-15 22:00:00 13.5 6 Sur 30 Oeste 0 -- -- 69
2021-01-15 21:00:00 13.3 12 Sudeste 24 Este 0 -- -- 68
2021-01-15 20:00:00 13.4 9 Este 17 Sudeste 0 -- -- 69
2021-01-15 19:00:00 13.5 6 Sur 21 Nordeste 0 -- -- 70
2021-01-15 18:00:00 14 8 Este 18 Nordeste 0 -- -- 70
2021-01-15 17:00:00 14.7 9 Sudeste 26 Este 0 -- -- 67
2021-01-15 16:00:00 14.6 9 Sudeste 17 Este 0 -- -- 70
2021-01-15 15:00:00 14.9 8 Sur 22 Este 0 -- -- 67
2021-01-15 14:00:00 14.9 9 Sudeste 18 Este 0 -- -- 69
2021-01-15 13:00:00 13.8 6 Sudeste 18 Este 0 -- -- 71
2021-01-15 12:00:00 14.1 14 Este 28 Este 0 -- -- 70
2021-01-15 11:00:00 13.7 13 Sudeste 29 Sudeste 0 -- -- 72
2021-01-15 10:00:00 13.3 5 Sur 21 Sur 0 -- -- 78
2021-01-15 09:00:00 13 9 Sudoeste 26 Este 0 -- -- 76
2021-01-15 08:00:00 12.9 13 Este 27 Este 0 -- -- 75
2021-01-15 07:00:00 12.9 10 Sudoeste 19 Sudoeste 0 -- -- 81
2021-01-15 06:00:00 12.7 10 Sudoeste 17 Sudoeste 0 -- -- 78
2021-01-15 05:00:00 13.1 11 Sudeste 29 Sudeste 0 -- -- 82
2021-01-15 04:00:00 13.1 9 Sudeste 24 Sudeste 0 -- -- 83
2021-01-15 03:00:00 13 10 Sur 35 Sudoeste 2.8 -- -- 90
2021-01-15 02:00:00 13.8 10 Sur 22 Sudeste 0 -- -- 74
2021-01-15 01:00:00 13.6 10 Sur 28 Sudoeste 0 -- -- 70
2021-01-15 00:00:00 13.8 17 Sudoeste 30 Sudoeste 0 -- -- 67
2021-01-14 23:00:00 13.2 11 Sudeste 22 Sur 0 -- -- 71
2021-01-14 22:00:00 13.4 7 Este 16 Este 0 -- -- 75
2021-01-14 21:00:00 13.7 5 Nordeste 21 Este 0 -- -- 75
2021-01-14 20:00:00 13.7 6 Este 14 Este 0 -- -- 77
2021-01-14 19:00:00 13.8 8 Este 18 Este 0 -- -- 78
2021-01-14 18:00:00 14.1 4 Sur 16 Sudoeste 0 -- -- 79
2021-01-14 17:00:00 14.3 8 Sudoeste 13 Sudoeste 0 -- -- 80
2021-01-14 16:00:00 14.3 7 Sur 13 Este 0.2 -- -- 83
2021-01-14 15:00:00 15.1 3 Sudeste 18 Sudeste 0 -- -- 77
2021-01-14 14:00:00 17.1 11 Este 24 Este 0 -- -- 65
2021-01-14 13:00:00 17.9 14 Este 23 Este 0 -- -- 59
2021-01-14 12:00:00 17.6 17 Este 23 Este 0 -- -- 66
2021-01-14 11:00:00 15.4 8 Sudoeste 22 Sur 0 -- -- 67
2021-01-14 10:00:00 14 9 Sudoeste 21 Sudoeste 0 -- -- 71
2021-01-14 09:00:00 13.8 11 Sudoeste 21 Sudoeste 0 -- -- 73
2021-01-14 08:00:00 13.4 8 Sur 21 Sudoeste 0 -- -- 76
2021-01-14 07:00:00 13 12 Sudoeste 22 Sudoeste 0 -- -- 71
2021-01-14 06:00:00 12.3 15 Sudoeste 20 Sudoeste 0 -- -- 72
2021-01-14 05:00:00 12.3 15 Sudoeste 23 Sudoeste 0 -- -- 73
2021-01-14 04:00:00 12.5 14 Sudoeste 21 Sudoeste 0 -- -- 73
2021-01-14 03:00:00 13.2 10 Sudoeste 18 Sudoeste 0 -- -- 77
2021-01-14 02:00:00 13.3 6 Sur 14 Sudoeste 0 -- -- 76
2021-01-14 01:00:00 13.4 6 Sur 20 Sudoeste 0 -- -- 77
2021-01-14 00:00:00 13.4 8 Sudoeste 36 Sudoeste 0 -- -- 78
2021-01-13 23:00:00 12.7 11 Sudoeste 21 Sudoeste 0 -- -- 85
2021-01-13 22:00:00 13.1 7 Sudoeste 13 Oeste 0 -- -- 74
2021-01-13 21:00:00 13.3 5 Nordeste 23 Este 0 -- -- 71
2021-01-13 20:00:00 13.1 6 Sudoeste 13 Noroeste 0 -- -- 74
2021-01-13 19:00:00 13 3 Sudoeste 18 Este 0 -- -- 77
2021-01-13 18:00:00 13.4 9 Nordeste 15 Este 0 -- -- 79
2021-01-13 17:00:00 13.7 10 Este 18 Este 0 -- -- 78
2021-01-13 16:00:00 14.2 7 Nordeste 16 Este 0 -- -- 77
2021-01-13 15:00:00 14.4 9 Este 20 Este 0 -- -- 75
2021-01-13 14:00:00 14.6 8 Nordeste 15 Nordeste 0 -- -- 73
2021-01-13 13:00:00 14 5 Nordeste 13 Nordeste 0 -- -- 77
2021-01-13 12:00:00 13.9 5 Sudoeste 13 Sudoeste 0 -- -- 74
2021-01-13 11:00:00 13.5 8 Sudoeste 14 Sudoeste 0 -- -- 77
2021-01-13 10:00:00 13.2 6 Sur 14 Este 0 -- -- 75
2021-01-13 09:00:00 12.9 9 Sudoeste 17 Sudoeste 0 -- -- 74
2021-01-13 08:00:00 12.4 7 Sudoeste 16 Sudoeste 0 -- -- 75
2021-01-13 07:00:00 12.4 9 Sudoeste 21 Sudoeste 0 -- -- 78
2021-01-13 06:00:00 11.9 10 Sudoeste 19 Oeste 0 -- -- 78
2021-01-13 05:00:00 12.6 4 Oeste 14 Noroeste 0 -- -- 76
2021-01-13 04:00:00 12.8 5 Noroeste 19 Nordeste 0 -- -- 74
2021-01-13 03:00:00 12.9 10 Este 22 Este 0 -- -- 82
2021-01-13 02:00:00 12.8 3 Sur 20 Este 0 -- -- 82
2021-01-13 01:00:00 12.5 8 Sudoeste 12 Sudoeste 0 -- -- 87
2021-01-13 00:00:00 12.9 4 Nordeste 18 Este 0 -- -- 86
2021-01-12 23:00:00 12.8 7 Sudoeste 18 Sudoeste 0 -- -- 86
2021-01-12 22:00:00 12.6 9 Sudoeste 18 Sudoeste 0 -- -- 87
2021-01-12 21:00:00 12.4 12 Sudoeste 16 Sudoeste 0 -- -- 87
2021-01-12 20:00:00 12.4 10 Sudoeste 14 Sudoeste 0 -- -- 82
2021-01-12 19:00:00 12.8 11 Sudoeste 14 Sudoeste 0 -- -- 85
2021-01-12 18:00:00 13.1 9 Este 26 Este 0 -- -- 80
2021-01-12 17:00:00 13.6 18 Nordeste 27 Nordeste 0 -- -- 83
2021-01-12 16:00:00 13.9 12 Nordeste 20 Nordeste 0 -- -- 81
2021-01-12 15:00:00 14.1 9 Este 22 Nordeste 0 -- -- 78
2021-01-12 14:00:00 13.8 19 Nordeste 32 Nordeste 0 -- -- 83
2021-01-12 13:00:00 13.6 8 Noroeste 19 Oeste 0 -- -- 78
2021-01-12 12:00:00 12.5 10 Oeste 30 Sudoeste 0 -- -- 79
2021-01-12 11:00:00 12.1 21 Sudoeste 29 Sudoeste 0 -- -- 84
2021-01-12 10:00:00 12 8 Sudoeste 19 Este 1.2 -- -- 89
2021-01-12 09:00:00 12 10 Sudoeste 19 Sudoeste 0 -- -- 89
2021-01-12 08:00:00 11.5 12 Sudoeste 19 Oeste 0.2 -- -- 88
2021-01-12 07:00:00 11.4 13 Sudoeste 22 Oeste 0 -- -- 82
2021-01-12 06:00:00 11.2 16 Sudoeste 23 Oeste 0 -- -- 82
2021-01-12 05:00:00 10.9 17 Sudoeste 24 Sudoeste 0 -- -- 81
2021-01-12 04:00:00 10.9 14 Oeste 18 Sudoeste 0 -- -- 89
2021-01-12 03:00:00 11.5 6 Oeste 12 Norte 0 -- -- 87
2021-01-12 02:00:00 11.9 6 Nordeste 17 Oeste 3.8 -- -- 86
2021-01-12 01:00:00 12 7 Sudoeste 16 Oeste 0 -- -- 87
2021-01-12 00:00:00 11.9 5 Noroeste 17 Sudoeste 0.6 -- -- 87
2021-01-11 23:00:00 11.4 15 Sudoeste 24 Sudoeste 0.8 -- -- 90
2021-01-11 22:00:00 11.1 16 Sudoeste 24 Sudoeste 0.8 -- -- 88
2021-01-11 21:00:00 12.1 12 Nordeste 26 Norte 0 -- -- 84
2021-01-11 20:00:00 12.7 18 Nordeste 37 Nordeste 0 -- -- 82
2021-01-11 19:00:00 12.5 8 Oeste 19 Oeste 0.2 -- -- 81
2021-01-11 18:00:00 13.1 7 Oeste 14 Norte 0 -- -- 78
2021-01-11 17:00:00 13.4 5 Noroeste 11 Oeste 0 -- -- 75
2021-01-11 16:00:00 13.2 7 Nordeste 24 Norte 0 -- -- 80
2021-01-11 15:00:00 13.8 11 Norte 26 Norte 0 -- -- 72
2021-01-11 14:00:00 15.1 10 Norte 23 Norte 0 -- -- 63
2021-01-11 13:00:00 14.6 15 Norte 28 Norte 0 -- -- 61
2021-01-11 12:00:00 14.5 14 Norte 23 Norte 0 -- -- 63
2021-01-11 11:00:00 14.5 11 Norte 18 Norte 0 -- -- 61
2021-01-11 10:00:00 14.4 6 Norte 16 Noroeste 0 -- -- 64
2021-01-11 09:00:00 13 9 Noroeste 18 Noroeste 0 -- -- 66
2021-01-11 08:00:00 11.9 9 Oeste 19 Sudoeste 0 -- -- 74
2021-01-11 07:00:00 12.1 12 Oeste 26 Oeste 0 -- -- 74
2021-01-11 06:00:00 11.2 16 Oeste 23 Sudoeste 0 -- -- 76
2021-01-11 05:00:00 11.8 13 Oeste 30 Norte 0 -- -- 72
2021-01-11 04:00:00 12.1 13 Noroeste 33 Noroeste 0 -- -- 76
2021-01-11 03:00:00 12.1 13 Noroeste 29 Norte 0 -- -- 80
2021-01-11 02:00:00 11.6 14 Oeste 41 Norte 0.2 -- -- 87
2021-01-11 01:00:00 12 16 Norte 35 Noroeste 1.6 -- -- 90
2021-01-11 00:00:00 12.4 19 Oeste 33 Oeste 0 -- -- 82
2021-01-10 23:00:00 12.8 14 Noroeste 32 Oeste 0 -- -- 82
2021-01-10 22:00:00 12.4 12 Oeste 30 Oeste 0 -- -- 74
2021-01-10 21:00:00 12.7 15 Noroeste 32 Norte 0 -- -- 77
2021-01-10 20:00:00 12.7 17 Noroeste 40 Noroeste 0 -- -- 79
2021-01-10 19:00:00 12.5 16 Noroeste 34 Noroeste 0.4 -- -- 88
2021-01-10 18:00:00 12.6 14 Noroeste 42 Oeste 0.8 -- -- 87
2021-01-10 17:00:00 13.4 14 Noroeste 33 Oeste 0 -- -- 85
2021-01-10 16:00:00 13.1 15 Noroeste 37 Norte 1.2 -- -- 88
2021-01-10 15:00:00 15.2 13 Norte 40 Norte 0 -- -- 76
2021-01-10 14:00:00 14 21 Norte 45 Noroeste 0 -- -- 77
2021-01-10 13:00:00 14.3 19 Norte 40 Norte 0 -- -- 77
2021-01-10 12:00:00 14.5 17 Norte 38 Noroeste 0 -- -- 77
2021-01-10 11:00:00 14.2 16 Norte 33 Oeste 0 -- -- 80
2021-01-10 10:00:00 12.2 18 Noroeste 32 Noroeste 0.4 -- -- 94
2021-01-10 09:00:00 10.6 21 Norte 50 Norte 3.2 -- -- 98
2021-01-10 08:00:00 12.3 18 Oeste 37 Noroeste 0 -- -- 81
2021-01-10 07:00:00 11.8 21 Oeste 42 Oeste 0.2 -- -- 82
2021-01-10 06:00:00 12.5 16 Noroeste 41 Noroeste 0 -- -- 75
2021-01-10 05:00:00 12.4 18 Oeste 36 Noroeste 0 -- -- 72
2021-01-10 04:00:00 12.3 19 Oeste 38 Noroeste 0 -- -- 76
2021-01-10 03:00:00 11.9 18 Oeste 34 Noroeste 0.2 -- -- 79
2021-01-10 02:00:00 11.4 16 Noroeste 40 Noroeste 1 -- -- 87
2021-01-10 01:00:00 12.4 22 Norte 40 Noroeste 0 -- -- 82
2021-01-10 00:00:00 12.6 14 Oeste 32 Noroeste 0 -- -- 72
2021-01-09 23:00:00 12.5 17 Oeste 33 Oeste 0 -- -- 77
2021-01-09 22:00:00 12.1 16 Oeste 31 Noroeste 0 -- -- 77
2021-01-09 21:00:00 12 12 Noroeste 30 Noroeste 0 -- -- 82
2021-01-09 20:00:00 11.5 13 Noroeste 30 Noroeste 1.2 -- -- 84
2021-01-09 19:00:00 12.3 10 Oeste 28 Oeste 0 -- -- 74
2021-01-09 18:00:00 12.4 14 Oeste 33 Noroeste 0 -- -- 75
2021-01-09 17:00:00 12.1 14 Norte 31 Noroeste 0 -- -- 79
2021-01-09 16:00:00 12.7 16 Norte 38 Noroeste 0 -- -- 75
2021-01-09 15:00:00 12.1 18 Oeste 45 Norte 1 -- -- 80
2021-01-09 14:00:00 13.3 18 Norte 48 Norte 0 -- -- 75
2021-01-09 13:00:00 13 20 Norte 45 Noroeste 0.2 -- -- 76
2021-01-09 12:00:00 11.6 17 Oeste 49 Norte 1.8 -- -- 82
2021-01-09 11:00:00 13.2 23 Norte 37 Norte 0.2 -- -- 79
2021-01-09 10:00:00 11.5 18 Norte 53 Norte 0.6 -- -- 86
2021-01-09 09:00:00 11.9 16 Oeste 37 Noroeste 0 -- -- 79
2021-01-09 08:00:00 11.2 21 Oeste 39 Noroeste 0 -- -- 79
2021-01-09 07:00:00 10.5 18 Noroeste 62 Norte 1.2 -- -- 85
2021-01-09 06:00:00 10.9 14 Oeste 34 Noroeste 0.8 -- -- 84
2021-01-09 05:00:00 11.1 21 Oeste 50 Norte 0.2 -- -- 83
2021-01-09 04:00:00 11.5 17 Noroeste 35 Noroeste 0 -- -- 78
2021-01-09 03:00:00 10.9 18 Oeste 38 Oeste 0 -- -- 86
2021-01-09 02:00:00 10.2 19 Oeste 34 Oeste 1.8 -- -- 89
2021-01-09 01:00:00 10.8 19 Oeste 50 Norte 0.6 -- -- 87
2021-01-09 00:00:00 11.7 16 Noroeste 36 Norte 0.2 -- -- 85
2021-01-08 23:00:00 11.7 17 Oeste 35 Oeste 0 -- -- 81
2021-01-08 22:00:00 11.7 19 Oeste 36 Oeste 0 -- -- 84
2021-01-08 21:00:00 11.3 12 Noroeste 42 Norte 3.8 -- -- 87
2021-01-08 20:00:00 11.9 18 Oeste 32 Noroeste 0 -- -- 82
2021-01-08 19:00:00 12.2 23 Norte 43 Norte 0 -- -- 83
2021-01-08 18:00:00 12.3 21 Oeste 41 Norte 0.2 -- -- 82
2021-01-08 17:00:00 12.7 17 Noroeste 36 Norte 0 -- -- 82
2021-01-08 16:00:00 12.7 18 Noroeste 54 Norte 0 -- -- 83
2021-01-08 15:00:00 12.5 18 Oeste 37 Oeste 2 -- -- 86
2021-01-08 14:00:00 12.1 17 Oeste 36 Noroeste 6 -- -- 91
2021-01-08 13:00:00 13.5 10 Noroeste 42 Noroeste 2.6 -- -- 86
2021-01-08 12:00:00 12.7 19 Oeste 44 Norte 2.4 -- -- 90
2021-01-08 11:00:00 12.5 25 Norte 47 Norte 2 -- -- 93
2021-01-08 10:00:00 13 17 Norte 46 Norte 0.8 -- -- 88
2021-01-08 09:00:00 12.8 18 Norte 41 Norte 1.6 -- -- 89
2021-01-08 08:00:00 12.9 15 Noroeste 46 Noroeste 1.2 -- -- 91
2021-01-08 07:00:00 12.9 24 Noroeste 52 Noroeste 1 -- -- 91
2021-01-08 06:00:00 12.8 24 Norte 55 Norte 3.2 -- -- 94
2021-01-08 05:00:00 13.7 18 Noroeste 46 Noroeste 0 -- -- 90
2021-01-08 04:00:00 13.5 23 Noroeste 59 Norte 9.4 -- -- 91
2021-01-08 03:00:00 13.8 22 Noroeste 51 Norte 5.2 -- -- 94
2021-01-08 02:00:00 14.3 12 Noroeste 52 Noroeste 0.6 -- -- 92
2021-01-08 01:00:00 14.6 22 Noroeste 51 Noroeste 2.8 -- -- 91
2021-01-08 00:00:00 14.3 16 Noroeste 51 Noroeste 10.2 -- -- 93
2021-01-07 23:00:00 15.1 12 Sudoeste 22 Sudoeste 0 -- -- 87
2021-01-07 22:00:00 15.3 17 Sudoeste 25 Oeste 0 -- -- 88
2021-01-07 21:00:00 15.3 12 Sudoeste 21 Sudoeste 0 -- -- 89
2021-01-07 20:00:00 15.7 13 Sudoeste 26 Sudoeste 0.6 -- -- 89
2021-01-07 19:00:00 16.1 12 Oeste 27 Sudoeste 0 -- -- 87
2021-01-07 18:00:00 16.8 13 Sudoeste 28 Sudoeste 1 -- -- 84
2021-01-07 17:00:00 17.3 11 Sudoeste 20 Oeste 0 -- -- 83
2021-01-07 16:00:00 18.6 11 Oeste 20 Sudoeste 0 -- -- 83
2021-01-07 15:00:00 19.3 6 Norte 23 Sudoeste 0.2 -- -- 80
2021-01-07 14:00:00 17.1 16 Sudoeste 26 Sudoeste 5.2 -- -- 89
2021-01-07 13:00:00 17.2 13 Sudoeste 23 Sudoeste 1.2 -- -- 85
2021-01-07 12:00:00 18.7 8 Sudeste 24 Sudoeste 0.4 -- -- 78
2021-01-07 11:00:00 17.4 12 Sudoeste 22 Sudoeste 0.2 -- -- 86
2021-01-07 10:00:00 16.2 12 Sudoeste 23 Sudoeste 0.4 -- -- 91
2021-01-07 09:00:00 15.7 17 Sudoeste 24 Oeste 1 -- -- 91
2021-01-07 08:00:00 15.6 9 Sudoeste 26 Sudoeste 2.2 -- -- 89
2021-01-07 07:00:00 16 10 Sudoeste 27 Sudoeste 7.4 -- -- 89
2021-01-07 06:00:00 15.7 5 Sudoeste 23 Sudoeste 5.4 -- -- 94
2021-01-07 05:00:00 15.5 9 Oeste 25 Oeste 2.2 -- -- 92
2021-01-07 04:00:00 15.5 17 Sudoeste 27 Sudoeste 2.6 -- -- 89
2021-01-07 03:00:00 16.5 10 Sudoeste 19 Sudoeste 0 -- -- 77
2021-01-07 02:00:00 16.4 12 Oeste 19 Oeste 0 -- -- 80
2021-01-07 01:00:00 16.7 15 Sudoeste 19 Sudoeste 0 -- -- 84
2021-01-07 00:00:00 16.6 9 Oeste 17 Oeste 0 -- -- 81
2021-01-06 23:00:00 16.8 10 Oeste 18 Sudoeste 0 -- -- 79
2021-01-06 22:00:00 16.5 9 Sudoeste 21 Sudoeste 0 -- -- 81
2021-01-06 21:00:00 17 11 Sudoeste 17 Oeste 0 -- -- 80
2021-01-06 20:00:00 17.2 12 Sudoeste 21 Sudoeste 0 -- -- 78
2021-01-06 19:00:00 17.3 11 Sudoeste 22 Sudoeste 0 -- -- 79
2021-01-06 18:00:00 17.6 11 Sudoeste 15 Sudoeste 0 -- -- 81
2021-01-06 17:00:00 19.3 10 Sudoeste 18 Sudoeste 0 -- -- 79
2021-01-06 16:00:00 21 5 Nordeste 13 Nordeste 0 -- -- 75
2021-01-06 15:00:00 21 5 Este 15 Este 0 -- -- 75
2021-01-06 14:00:00 21.3 10 Este 21 Este 0 -- -- 70
2021-01-06 13:00:00 22.5 6 Este 18 Este 0 -- -- 66
2021-01-06 12:00:00 20.9 6 Sur 15 Sudoeste 0 -- -- 72
2021-01-06 11:00:00 17.8 10 Sudoeste 22 Sudoeste 0 -- -- 86
2021-01-06 10:00:00 17.1 10 Sudoeste 30 Oeste 0.4 -- -- 86
2021-01-06 09:00:00 17.1 17 Sudoeste 23 Sudoeste 0 -- -- 85
2021-01-06 08:00:00 16.6 13 Sudoeste 24 Sudoeste 0 -- -- 85
2021-01-06 07:00:00 16 14 Sudoeste 23 Oeste 0.2 -- -- 88
2021-01-06 06:00:00 16.1 14 Sudoeste 23 Sudoeste 0 -- -- 86
2021-01-06 05:00:00 15.9 16 Sudoeste 28 Sudoeste 0 -- -- 87
2021-01-06 04:00:00 16 17 Sudoeste 24 Sudoeste 0.2 -- -- 83
2021-01-06 03:00:00 16.2 16 Sudoeste 32 Sudoeste 0.2 -- -- 86
2021-01-06 02:00:00 16.4 3 Oeste 17 Sudoeste 0 -- -- 83
2021-01-06 01:00:00 16.2 7 Sudoeste 22 Sudoeste 0 -- -- 83
2021-01-06 00:00:00 16.5 10 Sudoeste 15 Sudoeste 0 -- -- 82
2021-01-05 23:00:00 15.7 9 Sudoeste 13 Oeste 0 -- -- 86
2021-01-05 22:00:00 15.5 8 Sudoeste 13 Sudoeste 0 -- -- 86
2021-01-05 21:00:00 15.7 8 Sudoeste 15 Sudoeste 0 -- -- 88
2021-01-05 20:00:00 15.7 10 Sudoeste 14 Sudoeste 0 -- -- 85
2021-01-05 19:00:00 16 10 Sudoeste 14 Sudoeste 0 -- -- 86
2021-01-05 18:00:00 17 8 Sudoeste 12 Oeste 0 -- -- 84
2021-01-05 17:00:00 19.4 3 Sur 11 Este 0 -- -- 78
2021-01-05 16:00:00 20.9 4 Nordeste 16 Este 0 -- -- 74
2021-01-05 15:00:00 20.4 8 Este 15 Este 0 -- -- 77
2021-01-05 14:00:00 19.8 5 Este 13 Este 0 -- -- 79
2021-01-05 13:00:00 20 8 Este 12 Este 0 -- -- 81
2021-01-05 12:00:00 20.4 7 Este 17 Este 0 -- -- 78
2021-01-05 11:00:00 20.2 8 Este 15 Nordeste 0 -- -- 78
2021-01-05 10:00:00 17.5 8 Sudoeste 15 Sudoeste 0 -- -- 75
2021-01-05 09:00:00 16.5 10 Sudoeste 17 Sudoeste 0 -- -- 78
2021-01-05 08:00:00 15.7 12 Sudoeste 20 Oeste 0 -- -- 79
2021-01-05 07:00:00 15.5 12 Sudoeste 20 Sudoeste 0 -- -- 79
2021-01-05 06:00:00 15.1 14 Sudoeste 20 Sudoeste 0 -- -- 81
2021-01-05 05:00:00 15.6 14 Sudoeste 21 Oeste 0 -- -- 82
2021-01-05 04:00:00 15.6 12 Oeste 18 Oeste 0 -- -- 79
2021-01-05 03:00:00 15.7 11 Oeste 21 Oeste 0 -- -- 79
2021-01-05 02:00:00 16 13 Sudoeste 19 Sudoeste 0 -- -- 79
2021-01-05 01:00:00 16 12 Oeste 18 Oeste 0 -- -- 83
2021-01-05 00:00:00 16.4 15 Sudoeste 22 Sudoeste 0 -- -- 83
2021-01-04 23:00:00 16.4 13 Sudoeste 22 Sudoeste 0 -- -- 79
2021-01-04 22:00:00 16.1 14 Sudoeste 24 Sudoeste 0 -- -- 82
2021-01-04 21:00:00 16.6 16 Sudoeste 22 Oeste 0 -- -- 81
2021-01-04 20:00:00 17.1 12 Sudoeste 21 Oeste 0 -- -- 78
2021-01-04 19:00:00 17.1 12 Sudoeste 20 Oeste 0 -- -- 80
2021-01-04 18:00:00 17.7 13 Sudoeste 32 Sudoeste 0 -- -- 80
2021-01-04 17:00:00 18.4 14 Sudoeste 35 Sur 0 -- -- 79
2021-01-04 16:00:00 18.1 18 Sur 47 Sur 0 -- -- 85
2021-01-04 15:00:00 19.1 22 Sur 54 Sur 0 -- -- 80
2021-01-04 14:00:00 16.9 24 Sur 50 Sudeste 0 -- -- 93
2021-01-04 13:00:00 18.4 19 Sur 49 Sudoeste 0 -- -- 83
2021-01-04 12:00:00 16.9 23 Sur 55 Sudeste 0 -- -- 91
2021-01-04 11:00:00 17 22 Sudoeste 41 Sudeste 0 -- -- 90
2021-01-04 10:00:00 16.9 9 Sudoeste 41 Sudeste 0 -- -- 89
2021-01-04 09:00:00 16.7 8 Sur 23 Sudoeste 0 -- -- 82
2021-01-04 08:00:00 16.1 11 Sudoeste 30 Sudoeste 0 -- -- 89
2021-01-04 07:00:00 15.8 10 Sudoeste 33 Sudoeste 0 -- -- 83
2021-01-04 06:00:00 16.2 23 Sudoeste 46 Sudoeste 0 -- -- 88
2021-01-04 05:00:00 16.6 15 Sudeste 45 Sur 0 -- -- 84
2021-01-04 04:00:00 16.9 18 Sudoeste 51 Sur 0 -- -- 80
2021-01-04 03:00:00 15.9 13 Sudoeste 26 Sudoeste 0 -- -- 80
2021-01-04 02:00:00 15.1 4 Sudoeste 16 Sudeste 0 -- -- 90
2021-01-04 01:00:00 15.5 10 Sudoeste 33 Sur 0 -- -- 88
2021-01-04 00:00:00 16 7 Sudeste 31 Noroeste 0 -- -- 82
2021-01-03 23:00:00 15.8 14 Sur 39 Sur 0 -- -- 84
2021-01-03 22:00:00 14.5 6 Sudoeste 14 Sudoeste 0 -- -- 89
2021-01-03 21:00:00 14.7 9 Sudoeste 15 Sudoeste 0 -- -- 85
2021-01-03 20:00:00 14.9 5 Oeste 13 Oeste 0 -- -- 82
2021-01-03 19:00:00 15.1 10 Sur 19 Sudoeste 0 -- -- 83
2021-01-03 18:00:00 15.4 7 Sudoeste 32 Sudoeste 0 -- -- 81
2021-01-03 17:00:00 15.6 13 Nordeste 30 Norte 0 -- -- 80
2021-01-03 16:00:00 16.4 3 Norte 21 Sudeste 0 -- -- 83
2021-01-03 15:00:00 16.1 10 Sudeste 21 Sudeste 0 -- -- 82
2021-01-03 14:00:00 15.9 9 Sudeste 22 Sudeste 0 -- -- 82
2021-01-03 13:00:00 15.4 12 Sudeste 20 Sudeste 0 -- -- 83
2021-01-03 12:00:00 14.1 11 Sudoeste 21 Sudoeste 0.2 -- -- 86
2021-01-03 11:00:00 13.8 9 Sudoeste 22 Sudoeste 0 -- -- 83
2021-01-03 10:00:00 12.9 13 Sudoeste 18 Sudoeste 0.2 -- -- 81
2021-01-03 09:00:00 12.8 12 Sudoeste 16 Sudoeste 0.2 -- -- 87
2021-01-03 08:00:00 13.4 12 Sudoeste 17 Sudoeste 0 -- -- 87
2021-01-03 07:00:00 13.7 10 Sudoeste 13 Oeste 0 -- -- 83
2021-01-03 06:00:00 14.2 10 Sudoeste 15 Sudoeste 0 -- -- 82
2021-01-03 05:00:00 14.2 9 Sudoeste 22 Sudoeste 0 -- -- 81
2021-01-03 04:00:00 14.1 8 Sudoeste 23 Sudoeste 0 -- -- 77
2021-01-03 03:00:00 14.2 12 Sudoeste 22 Sudoeste 0 -- -- 81
2021-01-03 02:00:00 13.8 13 Sudoeste 18 Sudoeste 0 -- -- 79
2021-01-03 01:00:00 13.6 13 Sudoeste 19 Sudoeste 0 -- -- 77
2021-01-03 00:00:00 13.6 12 Sudoeste 22 Sudoeste 0 -- -- 72
2021-01-02 23:00:00 14.1 15 Sudoeste 24 Oeste 0 -- -- 76
2021-01-02 22:00:00 14.3 14 Sudoeste 24 Sudoeste 0 -- -- 76
2021-01-02 21:00:00 13.9 16 Sudoeste 22 Sudoeste 0 -- -- 79
2021-01-02 20:00:00 13.6 15 Sudoeste 23 Sudoeste 0 -- -- 79
2021-01-02 19:00:00 13.7 15 Sudoeste 23 Sudoeste 0 -- -- 80
2021-01-02 18:00:00 14.2 15 Sudoeste 28 Sudoeste 0 -- -- 77
2021-01-02 17:00:00 14.5 12 Sudoeste 24 Sudoeste 0 -- -- 79
2021-01-02 16:00:00 14.5 14 Sudoeste 23 Sudoeste 0 -- -- 79
2021-01-02 15:00:00 13.6 12 Sudoeste 21 Oeste 0 -- -- 87
2021-01-02 14:00:00 14.6 10 Sudoeste 24 Sudoeste 0 -- -- 82
2021-01-02 13:00:00 14.4 10 Sudoeste 19 Sudoeste 0 -- -- 81